TimeCST,TemperatureF,Dew PointF,Humidity,Sea Level PressureIn,VisibilityMPH,Wind Direction,Wind SpeedMPH,Gust SpeedMPH,PrecipitationIn,Events,Conditions,WindDirDegrees,DateUTC
12:15 AM,-18.4,-23.8,76,30.19,10.0,WNW,10.4,-,N/A,,Clear,300,2013-01-22 06:15:00
12:35 AM,-18.4,-22.0,84,30.19,10.0,NW,9.2,-,N/A,,Partly Cloudy,310,2013-01-22 06:35:00
12:55 AM,-18.4,-23.8,76,30.19,10.0,NW,8.1,-,N/A,,Clear,310,2013-01-22 06:55:00
1:15 AM,-18.4,-23.8,76,30.19,10.0,NW,9.2,-,N/A,,Clear,310,2013-01-22 07:15:00
1:35 AM,-18.4,-22.0,84,30.20,10.0,NW,8.1,-,N/A,,Clear,310,2013-01-22 07:35:00
1:55 AM,-18.4,-23.8,76,30.20,10.0,NW,8.1,-,N/A,,Clear,310,2013-01-22 07:55:00
2:15 AM,-18.4,-22.0,84,30.20,10.0,WNW,9.2,-,N/A,,Clear,300,2013-01-22 08:15:00
2:35 AM,-18.4,-22.0,84,30.21,10.0,WNW,8.1,-,N/A,,Clear,300,2013-01-22 08:35:00
2:55 AM,-18.4,-20.2,91,30.21,10.0,WNW,6.9,-,N/A,,Clear,290,2013-01-22 08:55:00
3:15 AM,-18.4,-23.8,76,30.21,10.0,WNW,5.8,-,N/A,,Clear,290,2013-01-22 09:15:00
3:35 AM,-20.2,-23.8,83,30.21,10.0,WNW,4.6,-,N/A,,Clear,290,2013-01-22 09:35:00
3:55 AM,-20.2,-23.8,83,30.21,10.0,West,4.6,-,N/A,,Clear,280,2013-01-22 09:55:00
4:15 AM,-20.2,-23.8,83,30.22,10.0,West,4.6,-,N/A,,Clear,280,2013-01-22 10:15:00
4:35 AM,-20.2,-23.8,83,30.22,10.0,West,6.9,-,N/A,,Clear,280,2013-01-22 10:35:00
4:55 AM,-20.2,-23.8,83,30.23,10.0,West,6.9,-,N/A,,Clear,280,2013-01-22 10:55:00
5:15 AM,-20.2,-23.8,83,30.23,8.0,West,6.9,-,N/A,,Clear,280,2013-01-22 11:15:00
5:35 AM,-20.2,-23.8,83,30.23,7.0,WNW,8.1,-,N/A,,Mostly Cloudy,290,2013-01-22 11:35:00
5:55 AM,-18.4,-22.0,84,30.23,10.0,WNW,5.8,-,N/A,,Overcast,300,2013-01-22 11:55:00
6:15 AM,-20.2,-23.8,83,30.23,10.0,WNW,5.8,-,N/A,,Overcast,290,2013-01-22 12:15:00
6:55 AM,-20.2,-23.8,83,30.23,2.0,WNW,4.6,-,N/A,,Overcast,290,2013-01-22 12:55:00
7:15 AM,-20.2,-23.8,83,30.22,8.0,Calm,Calm,-,N/A,,Overcast,0,2013-01-22 13:15:00
7:35 AM,-20.2,-27.4,69,30.21,10.0,Calm,Calm,-,N/A,,Partly Cloudy,0,2013-01-22 13:35:00
7:55 AM,-22.0,-25.6,83,30.21,10.0,Calm,Calm,-,N/A,,Clear,0,2013-01-22 13:55:00
8:15 AM,-23.8,-29.2,76,30.22,9.0,Calm,Calm,-,N/A,,Clear,0,2013-01-22 14:15:00
8:35 AM,-22.0,-25.6,83,30.24,1.0,West,4.6,-,N/A,,Overcast,270,2013-01-22 14:35:00
8:55 AM,-20.2,-20.2,100,30.24,1.0,West,3.5,-,N/A,,Overcast,280,2013-01-22 14:55:00
9:15 AM,-18.4,-23.8,76,30.24,1.2,WNW,4.6,-,N/A,,Overcast,300,2013-01-22 15:15:00
9:35 AM,-18.4,-20.2,91,30.23,8.0,NW,4.6,-,N/A,,Scattered Clouds,310,2013-01-22 15:35:00
9:55 AM,-18.4,-18.4,100,30.24,9.0,WSW,3.5,-,N/A,,Clear,250,2013-01-22 15:55:00
10:15 AM,-16.6,-20.2,84,30.24,5.0,WNW,3.5,-,N/A,,Scattered Clouds,300,2013-01-22 16:15:00
10:35 AM,-16.6,-18.4,92,30.24,5.0,WSW,3.5,-,N/A,,Overcast,250,2013-01-22 16:35:00
10:55 AM,-14.8,-14.8,100,30.24,10.0,West,3.5,-,N/A,,Overcast,260,2013-01-22 16:55:00
11:15 AM,-13.0,-18.4,77,30.24,10.0,WNW,8.1,-,N/A,,Overcast,290,2013-01-22 17:15:00
11:35 AM,-11.2,-16.6,77,30.24,10.0,WNW,8.1,-,N/A,,Overcast,290,2013-01-22 17:35:00
11:55 AM,-9.4,-16.6,71,30.23,10.0,West,8.1,-,N/A,,Overcast,270,2013-01-22 17:55:00
12:15 PM,-9.4,-16.6,71,30.22,10.0,WNW,4.6,-,N/A,,Scattered Clouds,290,2013-01-22 18:15:00
12:35 PM,-7.6,-14.8,71,30.21,10.0,WNW,6.9,-,N/A,,Clear,290,2013-01-22 18:35:00
12:55 PM,-7.6,-14.8,71,30.21,10.0,WNW,6.9,-,N/A,,Clear,290,2013-01-22 18:55:00
1:15 PM,-7.6,-14.8,71,30.19,10.0,West,6.9,-,N/A,,Clear,270,2013-01-22 19:15:00
1:35 PM,-5.8,-14.8,65,30.19,10.0,NW,4.6,-,N/A,,Clear,310,2013-01-22 19:35:00
1:55 PM,-5.8,-14.8,65,30.19,10.0,WNW,5.8,-,N/A,,Clear,300,2013-01-22 19:55:00
2:15 PM,-4.0,-14.8,60,30.19,10.0,West,8.1,-,N/A,,Clear,260,2013-01-22 20:15:00
2:35 PM,-4.0,-14.8,60,30.19,10.0,West,6.9,-,N/A,,Clear,260,2013-01-22 20:35:00
2:55 PM,-4.0,-14.8,60,30.18,10.0,West,5.8,-,N/A,,Clear,270,2013-01-22 20:55:00
3:15 PM,-2.2,-13.0,60,30.19,10.0,SW,6.9,-,N/A,,Clear,230,2013-01-22 21:15:00
3:35 PM,-2.2,-13.0,60,30.18,10.0,West,8.1,-,N/A,,Clear,260,2013-01-22 21:35:00
3:55 PM,-2.2,-14.8,55,30.17,10.0,WSW,6.9,-,N/A,,Clear,250,2013-01-22 21:55:00
4:15 PM,-2.2,-13.0,60,30.16,10.0,West,3.5,-,N/A,,Clear,260,2013-01-22 22:15:00
4:35 PM,-2.2,-14.8,55,30.16,10.0,WSW,4.6,-,N/A,,Clear,240,2013-01-22 22:35:00
4:55 PM,-2.2,-14.8,55,30.17,10.0,SW,3.5,-,N/A,,Clear,220,2013-01-22 22:55:00
5:15 PM,-2.2,-14.8,55,30.16,10.0,SW,3.5,-,N/A,,Clear,220,2013-01-22 23:15:00
5:35 PM,-4.0,-14.8,60,30.16,10.0,SSW,3.5,-,N/A,,Clear,200,2013-01-22 23:35:00
5:55 PM,-4.0,-13.0,65,30.15,10.0,SW,4.6,-,N/A,,Clear,220,2013-01-22 23:55:00
6:15 PM,-4.0,-11.2,71,30.15,10.0,SW,3.5,-,N/A,,Clear,220,2013-01-23 00:15:00
6:35 PM,-4.0,-13.0,65,30.14,10.0,SW,4.6,-,N/A,,Partly Cloudy,220,2013-01-23 00:35:00
6:55 PM,-4.0,-14.8,60,30.14,10.0,SSW,3.5,-,N/A,,Clear,210,2013-01-23 00:55:00
7:15 PM,-5.8,-14.8,65,30.14,10.0,South,3.5,-,N/A,,Clear,190,2013-01-23 01:15:00
7:35 PM,-5.8,-14.8,65,30.13,10.0,South,4.6,-,N/A,,Clear,190,2013-01-23 01:35:00
7:55 PM,-5.8,-14.8,65,30.13,10.0,South,3.5,-,N/A,,Clear,190,2013-01-23 01:55:00
8:15 PM,-5.8,-14.8,65,30.12,10.0,South,4.6,-,N/A,,Clear,190,2013-01-23 02:15:00
8:35 PM,-5.8,-13.0,71,30.12,10.0,SSW,4.6,-,N/A,,Clear,200,2013-01-23 02:35:00
8:55 PM,-7.6,-13.0,77,30.11,10.0,SSW,4.6,-,N/A,,Clear,200,2013-01-23 02:55:00
9:15 PM,-7.6,-14.8,71,30.11,10.0,South,4.6,-,N/A,,Mostly Cloudy,190,2013-01-23 03:15:00
9:35 PM,-7.6,-13.0,77,30.11,10.0,SSW,3.5,-,N/A,,Overcast,210,2013-01-23 03:35:00
9:55 PM,-5.8,-11.2,77,30.11,10.0,SW,5.8,-,N/A,,Overcast,230,2013-01-23 03:55:00
10:15 PM,-5.8,-11.2,77,30.11,10.0,WSW,4.6,-,N/A,,Mostly Cloudy,240,2013-01-23 04:15:00
10:35 PM,-5.8,-9999,N/A,30.11,10.0,WSW,4.6,-,N/A,,Overcast,240,2013-01-23 04:35:00
10:55 PM,-5.8,-11.2,77,30.10,10.0,SW,3.5,-,N/A,,Overcast,230,2013-01-23 04:55:00
11:15 PM,-5.8,-9999,N/A,30.10,10.0,SW,3.5,-,N/A,,Overcast,230,2013-01-23 05:15:00
11:35 PM,-5.8,-11.2,77,30.09,10.0,SW,4.6,-,N/A,,Overcast,230,2013-01-23 05:35:00
11:55 PM,-5.8,-9.4,84,30.09,10.0,SW,5.8,-,N/A,,Overcast,230,2013-01-23 05:55:00